Location: Partizánske
(48.6285°N, 18.3769°E)
Time: 18:21:01
(UTC+02:00)

Tiros 1 - All Passes

Search period start: 29 June 2022 00:00
Search period end: 09 July 2022 00:00
Orbit: 629 x 663 km, 48.4° (Epoch: 28 June)

Date Brightness Start Highest point End Pass type
(mag) Time Alt. Az. Time Alt. Az. Time Alt. Az.
29 Jun - 11:19:56 10° SSE 11:22:18 14° SE 11:24:39 10° ESE daylight
29 Jun - 12:59:08 10° SW 13:03:39 45° SSE 13:08:09 10° E daylight
29 Jun - 14:40:54 10° W 14:45:40 86° S 14:50:21 10° E daylight
29 Jun - 16:23:08 10° W 16:27:51 75° SSW 16:32:30 10° ESE daylight
29 Jun - 18:05:32 10° W 18:09:39 31° SSW 18:13:44 10° SSE daylight
30 Jun - 11:43:39 10° SSW 11:47:32 25° SE 11:51:26 10° E daylight
30 Jun - 13:24:32 10° WSW 13:29:14 67° SSE 13:33:55 10° E daylight
30 Jun - 15:06:39 10° W 15:11:25 88° S 15:16:06 10° E daylight
30 Jun - 16:48:54 10° W 16:53:29 54° SSW 16:58:00 10° SE daylight
30 Jun - 18:31:53 10° W 18:34:57 17° SW 18:38:00 10° S daylight
01 Jul - 10:29:37 10° SSE 10:31:39 13° SE 10:33:40 10° ESE daylight
01 Jul - 12:08:28 10° SW 12:12:58 43° SSE 12:17:26 10° E daylight
01 Jul - 13:50:11 10° W 13:54:56 84° S 13:59:40 10° E daylight
01 Jul - 15:32:25 10° W 15:37:08 77° SSW 15:41:49 10° ESE daylight
01 Jul - 17:14:46 10° W 17:18:58 33° SSW 17:23:08 10° SSE daylight
02 Jul - 10:53:05 10° SSW 10:56:52 24° SE 11:00:40 10° E daylight
02 Jul - 12:33:50 10° WSW 12:38:33 65° SSE 12:43:13 10° E daylight
02 Jul - 14:15:56 10° W 14:20:42 89° S 14:25:24 10° E daylight
02 Jul - 15:58:10 10° W 16:02:48 56° SSW 16:07:22 10° SE daylight
02 Jul - 17:41:02 10° W 17:44:18 19° SW 17:47:33 10° S daylight
03 Jul - 09:39:24 10° SSE 09:41:00 12° SE 09:42:36 10° ESE daylight
03 Jul - 11:17:49 10° SW 11:22:17 40° SSE 11:26:43 10° E daylight
03 Jul - 12:59:28 10° WSW 13:04:14 83° S 13:08:57 10° E daylight
03 Jul - 14:41:41 10° W 14:46:26 79° SSW 14:51:07 10° ESE daylight
03 Jul - 16:24:01 10° W 16:28:19 35° SSW 16:32:33 10° SE daylight
04 Jul - 10:02:31 10° SSW 10:06:12 22° SE 10:09:53 10° E daylight
04 Jul - 11:43:07 10° WSW 11:47:50 62° SSE 11:52:30 10° E daylight
04 Jul - 13:25:12 10° W 13:29:58 89° SSW 13:34:42 10° E daylight
04 Jul - 15:07:26 10° W 15:12:06 59° SSW 15:16:41 10° ESE daylight
04 Jul - 16:50:12 10° W 16:53:39 20° SW 16:57:04 10° S daylight
05 Jul - 08:49:25 10° SE 08:50:21 10° SE 08:51:17 10° ESE daylight
05 Jul - 10:27:10 10° SW 10:31:35 38° SSE 10:35:59 10° E daylight
05 Jul - 12:08:44 10° WSW 12:13:30 81° S 12:18:15 10° E daylight
05 Jul - 13:50:57 10° W 13:55:43 81° S 14:00:25 10° ESE daylight
05 Jul - 15:33:15 10° W 15:37:38 38° SSW 15:41:56 10° SE daylight
05 Jul - 17:18:36 10° SW 17:18:49 10° SW 17:19:02 10° SW daylight
06 Jul - 09:11:58 10° S 09:15:32 21° SE 09:19:06 10° E daylight
06 Jul - 10:52:25 10° WSW 10:57:08 60° SSE 11:01:48 10° E daylight
06 Jul - 12:34:28 10° W 12:39:15 89° S 12:44:00 10° E daylight
06 Jul - 14:16:42 10° W 14:21:24 62° SSW 14:26:01 10° ESE daylight
06 Jul - 15:59:23 10° W 16:03:00 22° SW 16:06:34 10° SSE daylight
07 Jul - 09:36:31 10° SW 09:40:53 36° SSE 09:45:15 10° E daylight
07 Jul - 11:18:00 10° WSW 11:22:47 80° S 11:27:33 10° E daylight
07 Jul - 13:00:13 10° W 13:05:00 83° S 13:09:44 10° ESE daylight
07 Jul - 14:42:30 10° W 14:46:56 40° SSW 14:51:19 10° SE daylight
07 Jul - 16:26:48 10° WSW 16:28:11 11° SW 16:29:33 10° SSW daylight
08 Jul - 08:21:27 10° S 08:24:52 20° SE 08:28:16 10° E daylight
08 Jul - 10:01:43 10° SW 10:06:25 57° SSE 10:11:05 10° E daylight
08 Jul - 11:43:43 10° W 11:48:31 89° S 11:53:17 10° E daylight
08 Jul - 13:25:57 10° W 13:30:41 65° SSW 13:35:21 10° ESE daylight
08 Jul - 15:08:34 10° W 15:12:20 24° SW 15:16:02 10° SSE daylight
